Weather History for Shreveport, LA

Change the Weather History Date:

Thursday, July 11, 2013

  Actual Average Record
Temperature  
Mean Temperature 83 °F 83 °F  
Max Temperature 94 °F 93 °F 105 °F (1998)
Min Temperature 72 °F 73 °F 62 °F (1899)
Degree Days  
Heating Degree Days 0 0  
Month to date heating degree days 0 0  
Since 1 June heating degree days 0 0  
Since 1 July heating degree days 0 0  
Cooling Degree Days 18 18  
Month to date cooling degree days 177 193  
Year to date cooling degree days 1062 1035  
Since 1 June cooling degree days 675 637  
Growing Degree Days 34 (Base 50)    
Moisture  
Dew Point 73 °F    
Average Humidity 66    
Maximum Humidity 79    
Minimum Humidity 52    
Precipitation  
Precipitation T in 0.12 in 1.16 in (1945)
Month to date precipitation T 1.49  
Year to date precipitation 24.60 29.10  
Snow  
Snow 0.00 in - - ()
Month to date snowfall 0.0  
Since 1 June snowfall 0.0  
Since 1 July snowfall 0.0  
Snow Depth 0.00 in    
Sea Level Pressure  
Sea Level Pressure 29.94 in    
Wind  
Wind Speed 5 mph (SSW)    
Max Wind Speed 28 mph    
Max Gust Speed 41 mph    
Visibility 10 miles    
Events Rain , Thunderstorm    
T = Trace of Precipitation, MM = Missing Value Source: NWS Daily Summary

Daily Weather History Graph

Daily Weather History Graph

Search for Another Location

Airport:

Trip Planner

Search our weather history database for the weather conditions in past years. The results will help you decide how hot, cold, wet, or windy it might be!

Date:

Astronomy

Jul. 11, 2013 Rise Set
Actual Time 6:16 AM CDT 8:24 PM CDT
Civil Twilight 5:48 AM CDT 8:52 PM CDT
Nautical Twilight 5:14 AM CDT 9:26 PM CDT
Astronomical Twilight 4:37 AM CDT 10:03 PM CDT
Moon 9:22 AM CDT (7/11) 10:21 PM CDT (7/11)
Length of Visible Light 15h 03m
Length of Day
14h 08m
Waxing Crescent, 11% of the Moon is Illuminated
Jul 11
Waxing Crescent
Jul 15
First Quarter
Jul 22
Full
Jul 29
Last Quarter
Aug 6
New

Hourly Weather History & Observations

Time (CDT) Temp. Heat Index Dew Point Humidity Pressure Visibility Wind Dir Wind Speed Gust Speed Precip Events Conditions
12:56 AM 82.9 °F 88.0 °F 72.0 °F 69% 29.95 in 10.0 mi SSW 6.9 mph - N/A   Mostly Cloudy
1:56 AM 82.9 °F 88.8 °F 73.0 °F 72% 29.97 in 10.0 mi NNE 9.2 mph - N/A   Overcast
2:56 AM 84.0 °F 89.6 °F 72.0 °F 67% 29.97 in 10.0 mi NW 4.6 mph - N/A   Clear
3:56 AM 82.9 °F 88.0 °F 72.0 °F 69% 29.96 in 10.0 mi SW 4.6 mph - N/A   Partly Cloudy
4:56 AM 81.0 °F 85.8 °F 73.0 °F 77% 29.95 in 10.0 mi SW 5.8 mph - N/A   Scattered Clouds
5:56 AM 80.1 °F 84.2 °F 73.0 °F 79% 29.96 in 10.0 mi South 3.5 mph - N/A   Overcast
6:56 AM 80.1 °F 84.2 °F 73.0 °F 79% 29.96 in 10.0 mi Calm Calm - N/A   Overcast
7:56 AM 80.1 °F 84.2 °F 73.0 °F 79% 29.96 in 10.0 mi SW 8.1 mph - N/A   Overcast
8:56 AM 82.0 °F 87.9 °F 73.9 °F 76% 29.97 in 10.0 mi SW 5.8 mph - N/A   Mostly Cloudy
9:56 AM 84.0 °F 91.2 °F 73.9 °F 72% 29.99 in 10.0 mi Variable 4.6 mph - N/A   Overcast
10:56 AM 84.9 °F 93.3 °F 75.0 °F 72% 29.98 in 10.0 mi SW 3.5 mph - 0.00 in Rain Light Rain
11:56 AM 86.0 °F 95.1 °F 75.0 °F 70% 29.97 in 10.0 mi Calm Calm - 0.00 in Rain Light Rain
12:56 PM 87.1 °F 97.3 °F 75.9 °F 69% 29.97 in 10.0 mi South 5.8 mph - 0.00 in   Overcast
1:56 PM 89.1 °F 101.4 °F 77.0 °F 67% 29.95 in 10.0 mi SSE 10.4 mph - N/A   Overcast
2:56 PM 91.0 °F 102.9 °F 75.9 °F 61% 29.92 in 10.0 mi South 6.9 mph - N/A   Mostly Cloudy
3:56 PM 93.0 °F 103.2 °F 73.9 °F 54% 29.89 in 10.0 mi WSW 4.6 mph - N/A   Mostly Cloudy
4:56 PM 93.9 °F 105.4 °F 75.0 °F 54% 29.89 in 10.0 mi Variable 4.6 mph - N/A   Mostly Cloudy
5:56 PM 91.0 °F 101.6 °F 75.0 °F 59% 29.89 in 10.0 mi South 5.8 mph - N/A   Mostly Cloudy
6:50 PM 89.6 °F 99.8 °F 75.2 °F 62% 29.91 in 10.0 mi SW 4.6 mph - N/A Thunderstorm Thunderstorm
6:56 PM 89.1 °F 100.2 °F 75.9 °F 65% 29.90 in 10.0 mi WSW 5.8 mph - N/A Thunderstorm Thunderstorm
7:44 PM 82.4 °F 87.2 °F 71.6 °F 70% 29.91 in 10.0 mi West 10.4 mph - N/A   Mostly Cloudy
7:56 PM 82.0 °F 86.3 °F 71.1 °F 69% 29.89 in 10.0 mi WSW 3.5 mph - N/A   Mostly Cloudy
8:56 PM 80.1 °F 82.9 °F 69.1 °F 69% 29.90 in 10.0 mi Calm Calm - N/A   Mostly Cloudy
9:31 PM 78.8 °F - 69.8 °F 74% 29.99 in 10.0 mi East 27.6 mph 41.4 mph N/A   Mostly Cloudy
9:56 PM 75.9 °F - 66.9 °F 74% 29.96 in 10.0 mi SE 12.7 mph 26.5 mph N/A   Overcast
10:56 PM 75.0 °F - 66.0 °F 73% 29.92 in 10.0 mi Calm Calm - N/A   Mostly Cloudy
11:56 PM 75.9 °F - 66.0 °F 71% 29.92 in 10.0 mi Calm Calm - N/A   Mostly Cloudy